Regional Weather Roundup
Issued by NWS State College, PA

Home | Current Version | Previous Version | Graphics & Text | Print | Product List | Glossary Off
Versions: 1 2 3 4 5 6 7 8 9 10 11 12 13 14 15 16 17 18 19 20 21 22 23 24 25 26 27 28 29 30 31 32 33 34 35 36 37 38 39 40 41 42 43 44 45 46 47 48 49 50

000
ASUS41 KCTP 010110
RWRCTP

REGIONAL WEATHER ROUNDUP
NATIONAL WEATHER SERVICE STATE COLLEGE PA
900 PM EDT MON AUG 31 2015

Note: "fair" indicates few or no clouds below 12,000 feet with no
significant weather and/or obstructions to visibility.

* = STATION THAT DOES NOT REPORT PRECIPITATION /E.G. RAIN...SNOW...ETC/
    THUNDER OR FOG.

PAZ002>004-007>009-013>016-020>023-029>032-010200-
WESTERN PENNSYLVANIA

CITY           SKY/WX    TMP DP  RH WIND       PRES   REMARKS
ERIE           FAIR      73  66  78 SW3       30.06R
MEADVILLE      FAIR      72  64  76 W3        30.10R
FRANKLIN*      FAIR      72  64  78 NW3       30.12R
NEW CASTLE     FAIR      77  71  81 CALM      30.09R
BEAVER COUNTY  CLEAR     79  66  65 CALM      30.08R
BUTLER*        FAIR      73  64  73 CALM      30.10R
PITTSBURGH INT FAIR      79  65  62 W5        30.07R
PITTSBURGH     FAIR      80  59  48 NW5       30.07R
INDIANA*       CLEAR     73  66  78 CALM      30.12R
LATROBE        CLEAR     75  66  73 CALM      30.09R
WASHINGTON CO* FAIR      70  64  83 CALM      30.09R
$$

PAZ004>006-010>012-017>019-024>028-033>037-041-042-045-046-049>053-010200-
CENTRAL PENNSYLVANIA

CITY           SKY/WX    TMP DP  RH WIND       PRES   REMARKS
BRADFORD       FAIR      67  63  87 CALM      30.12R
DUBOIS         FAIR      74  65  73 CALM      30.10R
CLEARFIELD     FAIR      72  66  81 CALM      30.09R
JOHNSTOWN      FAIR      76  60  57 N7        30.13R
ALTOONA        FAIR      71  66  84 CALM      30.10R
STATE COLLEGE  CLEAR     77  66  69 W5        30.07R
WILLIAMSPORT   FAIR      75  70  84 CALM      30.00R
SELINSGROVE    FAIR      72  70  93 CALM      30.02R
FT INDIANTOWN  FAIR      74  69  83 CALM      30.03R
CAPITAL CITY   FAIR      78  67  68 W5        30.02R
HARRISBURG     FAIR      80  70  71 CALM      30.02R
YORK           FAIR      70  67  90 CALM      30.04R
$$

PAZ038>040-043-044-047-048-054-055-060>062-067>071-010200-
EASTERN PENNSYLVANIA

CITY           SKY/WX    TMP DP  RH WIND       PRES   REMARKS
SCRANTON       MOCLDY    76  69  79 CALM      30.03R
MOUNT POCONO   FAIR      70  64  81 NW3       30.08R
ALLENTOWN      FAIR      81  68  64 W6        30.01R
QUAKERTOWN*    FAIR      77  68  73 CALM      30.03S
READING        FAIR      80  67  64 SW3       30.01R
LANCASTER      FAIR      80  67  64 SW3       30.03R
COATESVILLE    FAIR      75  70  83 SW3       30.05S
POTTSTOWN      FAIR      79  71  76 SW5       30.03S
BLUE BELL      FAIR      79  70  73 SW3       30.01S
DOYLESTOWN     FAIR      79  70  74 SW8       30.01R
WILLOW GROVE   NOT AVBL
NORTH PHILA    FAIR      83  66  56 SW9       30.02R
PHILADELPHIA   FAIR      82  67  60 SW10      30.02R
$$



USA.gov is the U.S. government's official web portal to all federal, state and local government web resources and services.